Theta_e
329 330 330 330 330 330 330 330 331 331 331 332 332 332 333 333 332 332 332 332 332 331 331 331 331 331 331 331 330 329 329 330 330 331 331 331 332 333 334 333 331 332
327 328 329 330 330 330 330 330 330 330 330 331 331 332 332 333 333 332 332 332 332 332 331 330 330 330 330 330 329 328 329 331 331 330 331 331 332 333 334 332 331 332
325 326 327 329 330 330 330 330 330 330 330 330 330 331 332 332 332 331 331 332 332 331 331 330 330 329 329 330 330 329 330 331 331 331 331 331 331 332 334 332 330 331
322 323 324 326 329 330 330 330 331 331 331 331 331 331 331 330 330 330 331 331 331 331 331 330 329 329 329 329 330 330 331 331 331 331 331 331 331 331 332 332 330 331
320 321 322 324 326 328 330 331 331 331 331 331 331 330 330 329 330 330 331 331 331 331 330 330 329 329 328 328 329 330 331 331 331 331 331 331 331 332 332 331 330 331
318 319 321 322 324 326 328 330 330 331 331 331 330 330 330 329 330 331 331 331 331 331 330 330 329 329 328 328 329 330 330 330 329 330 331 331 331 332 332 331 331 331
316 317 319 320 322 324 326 328 329 330 330 330 330 330 329 329 330 330 330 330 331 331 331 330 329 328 327 327 329 330 330 330 329 330 331 331 331 331 331 332 332 331
315 316 317 318 320 322 323 325 327 328 329 330 330 329 329 329 329 330 330 330 331 330 330 330 330 329 328 328 329 330 330 330 330 330 330 331 331 331 331 331 332 332
314 314 315 316 317 319 320 322 323 325 327 329 329 329 329 329 329 330 330 330 330 330 330 330 330 330 329 328 327 329 330 329 330 330 330 331 331 331 331 331 331 332
313 313 313 314 315 316 317 318 320 322 324 327 328 329 329 329 329 329 330 330 330 330 330 331 330 330 329 329 328 329 330 329 329 330 330 330 330 330 331 331 331 331
312 313 312 312 313 314 315 316 317 320 322 325 327 328 328 328 329 329 330 330 330 329 330 331 331 330 329 329 329 329 329 329 329 329 328 329 330 330 330 330 330 331
312 312 311 311 312 313 314 315 316 317 319 322 325 327 328 328 329 329 330 330 330 329 330 331 331 330 330 329 329 328 328 329 328 327 328 329 330 331 330 329 330 330
311 311 310 310 310 311 312 313 314 315 317 319 322 325 327 328 329 329 329 330 330 330 330 330 330 331 331 330 329 328 328 328 328 327 328 329 330 330 330 330 330 330
310 310 310 310 309 310 311 312 313 314 316 317 320 323 326 327 328 329 329 329 329 330 330 330 330 331 331 330 330 329 328 328 327 327 328 330 330 330 330 330 330 330
309 309 309 309 309 309 309 310 310 312 314 316 319 322 324 326 328 328 329 329 329 329 330 330 330 331 331 331 330 329 329 329 328 327 328 329 330 330 329 329 329 330
309 309 309 309 308 308 308 308 308 309 311 312 315 319 323 325 326 327 328 329 329 329 329 330 330 331 331 331 329 328 329 330 329 329 328 328 329 328 328 329 329 330
308 308 308 308 308 307 307 307 307 307 308 308 311 315 320 323 325 326 327 328 328 328 328 329 330 331 331 330 329 329 329 330 330 329 328 329 329 328 328 329 330 331
307 308 308 308 307 307 307 306 306 306 306 306 307 310 315 319 322 323 325 326 327 327 328 328 329 329 329 330 330 329 329 329 329 329 329 329 329 328 328 329 329 329
307 307 307 307 307 307 306 306 306 305 305 305 305 306 309 313 316 318 319 320 322 323 325 327 328 328 328 329 329 329 328 328 328 329 329 328 327 327 328 328 328 329
307 307 306 306 306 306 306 306 305 305 304 304 304 304 305 307 310 312 313 314 315 317 320 323 324 325 325 325 326 326 327 327 327 328 328 326 326 325 326 327 327 329
306 306 306 306 306 306 306 305 305 305 304 303 303 303 302 303 304 307 309 310 311 312 314 316 318 319 320 321 324 325 325 326 326 327 327 328 328 328 328 329 330 329
305 306 306 306 306 305 305 305 305 304 304 303 303 302 302 302 301 302 304 305 307 308 309 309 311 313 315 318 321 324 325 324 324 326 327 328 330 330 330 331 331 330
304 305 305 305 305 305 305 305 305 304 304 303 303 302 302 301 301 301 301 301 303 304 306 305 305 307 310 314 317 320 322 323 324 326 327 328 329 329 329 330 331 330
304 304 304 305 305 305 304 304 305 304 304 304 303 303 302 301 301 300 300 300 300 301 303 304 303 303 306 310 313 315 317 320 322 324 325 326 326 327 326 327 328 329
303 303 304 304 304 304 303 303 304 304 304 304 304 303 303 302 301 300 300 300 299 299 300 302 303 303 304 306 309 311 314 317 319 321 324 324 324 324 324 323 324 326
303 303 303 303 303 303 303 303 303 303 302 303 303 303 303 303 302 301 300 299 299 299 299 299 301 302 303 303 305 307 311 314 315 317 321 323 322 321 321 320 320 322
Wind_Speed
10 9 8 9 10 11 11 10 11 12 14 14 15 15 14 14 15 15 17 17 18 21 22 23 24 25 26 25 25 27 28 28 28 28 25 24 23 20 18 20 20 17
10 10 10 10 11 12 12 12 12 13 15 15 16 16 15 15 15 15 17 17 16 18 19 22 25 25 27 27 26 27 28 26 26 26 25 23 22 20 18 21 22 19
12 12 12 13 13 13 13 13 14 14 15 16 16 16 15 15 16 17 17 16 16 17 17 21 25 25 28 28 27 28 26 22 22 23 23 24 24 21 18 21 23 23
14 13 14 14 15 14 13 13 14 14 14 14 16 17 16 16 16 16 17 16 16 17 17 20 23 25 28 28 28 28 25 22 22 22 22 23 23 21 19 20 22 23
15 14 14 14 15 15 14 14 15 14 13 13 15 16 16 17 16 15 17 17 16 17 17 18 21 25 28 28 27 27 25 23 23 22 22 22 21 19 18 21 24 23
16 15 14 14 15 16 15 15 15 15 14 13 14 15 16 16 15 14 16 17 16 16 17 17 19 23 26 27 27 26 24 23 23 22 22 22 20 19 18 21 25 24
18 17 15 15 16 16 15 15 14 15 15 14 13 14 15 15 14 14 15 16 16 16 17 17 18 20 24 26 26 24 23 23 23 23 22 21 20 20 20 20 22 23
18 18 16 16 17 16 15 14 14 14 14 13 13 15 15 14 14 14 14 14 15 16 17 18 18 19 22 25 25 24 23 23 23 23 23 22 21 21 22 23 22 22
19 18 18 18 17 17 16 16 15 15 15 13 13 14 15 14 14 14 14 13 14 16 17 17 18 19 21 23 24 23 23 24 25 26 25 23 21 21 23 24 23 21
20 19 19 19 18 17 17 17 17 16 16 15 14 13 14 14 13 13 14 14 14 16 18 18 18 19 19 20 22 22 22 25 27 27 27 26 24 22 23 23 22 21
20 20 20 20 19 18 18 19 18 16 15 16 15 14 13 14 13 12 13 15 17 17 18 17 17 19 19 20 21 22 22 24 26 27 27 27 26 23 23 23 22 21
21 20 21 21 21 20 19 18 18 17 16 16 15 14 13 13 13 12 13 16 18 17 17 16 16 17 19 19 20 22 23 23 24 26 26 26 25 23 23 24 23 21
21 21 22 22 22 21 20 19 18 18 17 16 15 15 13 13 13 13 15 16 16 16 16 16 16 16 17 17 18 20 22 23 25 26 25 24 23 23 25 26 26 24
21 21 22 22 23 22 20 19 19 19 18 16 15 15 14 13 13 14 16 16 16 17 18 17 17 17 17 17 18 19 20 24 26 27 26 23 21 22 26 27 27 26
21 22 22 23 23 22 21 21 21 20 18 17 15 15 15 14 14 14 15 16 16 17 18 18 17 17 18 18 18 19 21 23 24 24 24 23 22 23 25 26 27 26
22 22 23 24 24 23 23 23 23 22 20 19 17 14 14 14 14 14 15 15 16 17 19 19 17 17 19 19 19 19 20 20 20 20 21 22 24 25 24 25 26 24
22 23 23 24 25 24 23 23 24 23 22 22 21 18 14 12 13 15 15 16 17 17 18 19 19 17 18 20 21 21 19 19 19 20 21 23 25 26 24 24 24 22
22 23 23 25 25 25 25 24 24 23 23 23 24 23 19 13 11 13 14 16 18 19 19 20 19 17 18 22 24 24 23 21 20 21 22 24 25 24 23 24 23 22
23 23 24 25 25 26 25 25 25 24 24 23 22 23 23 19 15 14 13 12 13 13 14 17 17 17 19 22 25 27 27 23 20 21 22 23 25 23 21 22 21 20
23 23 24 24 25 25 25 26 26 25 24 22 21 22 25 25 22 19 17 15 14 12 9 6 8 12 15 18 22 24 25 25 23 21 21 23 26 23 20 20 19 18
23 23 24 24 24 25 25 25 26 26 24 23 22 21 21 23 24 22 20 18 16 13 11 9 7 10 12 13 17 21 22 25 25 22 21 22 20 17 15 15 16 17
23 22 23 24 24 24 25 25 25 25 25 23 22 22 20 19 21 23 22 20 18 15 13 12 11 12 13 13 15 19 22 23 22 21 20 17 13 11 12 12 12 14
23 23 23 23 24 23 24 24 24 24 24 24 23 23 23 21 20 21 23 22 20 18 16 14 15 15 13 12 13 17 21 21 20 20 19 15 13 13 11 10 12 13
23 23 23 23 24 23 23 23 22 22 23 23 23 23 23 23 21 21 23 23 21 20 18 17 16 17 15 13 11 13 17 18 16 17 17 12 12 14 11 9 13 16
22 22 22 22 23 23 23 23 22 21 21 21 21 22 21 22 22 23 23 24 23 22 23 23 20 18 17 14 11 11 13 15 12 12 15 12 11 14 12 10 14 19
22 22 22 22 22 22 22 23 22 22 22 20 20 20 20 20 21 22 23 25 26 25 27 29 26 20 19 16 13 11 8 12 10 8 10 10 10 11 12 10 11 15
Wind_Direction
325 312 298 289 284 282 277 269 264 263 263 261 260 260 254 253 254 246 244 248 245 242 240 235 228 223 222 222 220 220 218 217 220 220 217 218 224 223 213 211 219 223
332 324 311 298 290 286 283 278 270 263 262 260 258 259 256 251 248 244 241 242 242 241 238 232 227 224 222 220 219 220 218 217 220 221 217 217 222 223 216 213 218 225
336 330 323 313 304 294 288 284 278 268 263 262 260 260 259 253 247 245 242 239 237 235 233 231 229 227 226 223 221 219 215 214 220 223 220 219 221 221 218 216 217 221
335 333 329 322 313 304 294 285 280 276 270 268 267 265 263 257 249 244 241 238 235 232 229 231 232 231 229 224 220 217 212 212 217 221 225 224 221 220 218 217 216 218
333 331 331 327 322 315 305 291 284 282 279 276 274 269 264 259 252 244 240 237 236 234 230 229 231 231 227 221 217 216 212 212 216 221 226 224 219 217 215 215 215 218
334 331 329 327 324 321 313 302 293 289 286 284 279 273 265 260 255 249 244 240 237 233 226 224 227 227 221 216 216 217 215 214 216 219 222 221 219 216 213 214 215 219
341 335 331 327 323 320 314 309 304 298 292 290 286 276 268 263 258 252 248 245 241 234 224 217 219 217 213 212 215 218 219 219 218 218 219 220 219 217 215 214 216 219
348 343 338 331 326 320 317 316 314 308 300 293 287 280 273 266 259 254 251 248 246 242 229 217 215 210 206 209 213 215 218 221 222 220 219 219 218 216 213 210 212 217
350 348 345 339 333 327 323 320 317 314 309 297 285 280 275 266 260 256 252 248 247 245 233 219 214 212 210 213 216 217 216 217 219 220 219 219 216 212 211 211 212 214
351 349 347 344 339 333 328 325 319 314 311 304 290 278 273 266 260 257 253 247 242 240 232 219 211 212 215 215 217 220 217 214 216 217 218 220 218 214 214 213 212 212
353 351 348 346 342 337 331 328 323 316 310 305 295 282 272 265 259 253 251 245 237 233 227 217 209 210 214 214 215 220 221 218 218 218 218 220 220 216 213 210 209 211
356 353 350 348 345 341 337 332 327 320 313 307 300 290 275 265 259 250 246 245 240 234 227 220 214 212 215 215 213 217 222 221 219 220 220 219 217 214 210 210 212 213
357 354 352 350 346 343 341 338 333 326 317 310 305 298 283 269 261 253 247 245 241 233 227 224 221 216 213 211 208 213 220 221 218 218 218 218 218 213 211 214 217 215
358 357 355 352 349 346 345 343 341 335 326 317 309 302 293 277 264 259 254 247 240 234 230 226 223 219 212 206 206 212 217 218 218 218 216 217 219 214 211 214 217 216
0 360 359 356 354 351 349 348 346 344 339 331 319 308 301 287 271 264 260 254 245 239 234 228 224 222 215 207 206 211 211 211 215 217 214 214 216 216 214 213 213 212
3 3 2 2 0 357 354 352 351 350 349 346 342 329 313 299 282 269 263 258 252 245 238 233 228 224 217 213 215 219 214 210 216 221 220 217 217 217 213 209 210 209
6 6 5 6 5 2 360 358 356 355 354 355 357 353 338 317 299 283 272 263 257 251 245 239 235 230 223 219 221 222 217 212 215 220 225 226 221 215 210 208 208 206
9 8 8 8 8 7 5 3 1 359 358 358 1 1 355 342 325 310 295 279 268 260 249 242 243 243 236 228 222 217 213 214 214 212 216 226 226 217 207 205 206 204
11 11 11 10 10 9 9 8 6 4 3 2 2 4 5 1 353 345 337 323 310 295 267 248 246 250 248 241 231 219 210 208 212 211 214 224 230 224 210 204 206 205
12 13 13 11 11 11 11 12 11 9 8 7 6 8 12 12 6 359 355 353 349 345 333 298 260 256 259 254 244 232 219 212 211 213 216 221 224 223 216 208 203 199
13 14 15 14 14 14 14 15 14 13 12 11 11 11 13 16 15 10 4 359 354 349 347 348 321 286 280 269 252 245 238 228 220 217 222 224 220 215 213 211 203 198
14 14 15 16 16 16 17 17 17 17 16 16 17 17 16 17 19 19 15 9 4 359 355 354 338 312 302 290 264 251 249 243 231 225 228 228 220 209 207 213 214 205
16 16 15 16 16 17 17 17 18 20 20 20 21 23 24 24 23 24 23 20 15 12 10 6 356 341 323 303 277 259 252 246 238 234 232 224 213 207 201 203 208 202
17 18 18 18 19 18 15 15 16 18 20 22 23 25 27 27 29 29 29 27 22 18 16 11 5 359 346 322 296 277 258 244 238 239 234 217 205 206 196 194 206 204
17 18 19 19 20 21 19 17 16 14 15 17 20 23 24 26 28 30 30 30 27 24 21 18 12 5 358 346 327 307 268 239 239 250 237 216 202 201 192 196 217 214
20 20 21 20 19 20 21 21 20 18 16 15 16 18 19 21 25 27 29 31 30 29 28 26 22 14 6 360 352 340 289 239 243 266 245 223 209 198 186 187 208 211